Location: Cahoon Acres
(40.8736°N, 111.8994°W)
Time: 07:50:03
(UTC+00:00)

Tiros 1 despin weight - All Passes

Search period start: 26 May 2020 00:00
Search period end: 05 June 2020 00:00
Orbit: 594 x 642 km, 48.2° (Epoch: 24 May)

Date Brightness Start Highest point End Pass type
(mag) Time Alt. Az. Time Alt. Az. Time Alt. Az.
26 May - 01:11:33 10° WNW 01:16:02 88° NE 01:20:27 10° ESE daylight
26 May - 02:54:01 10° W 02:57:06 19° SW 03:00:11 10° S daylight
26 May - 18:40:40 10° SSW 18:44:56 38° SE 18:49:09 10° ENE daylight
26 May - 20:21:55 10° W 20:26:25 55° NNW 20:30:51 10° ENE daylight
26 May - 22:04:31 10° WNW 22:08:35 32° N 22:12:37 10° ENE daylight
26 May - 23:46:31 10° NW 23:50:51 45° NNE 23:55:07 10° E daylight
27 May - 01:28:08 10° WNW 01:32:28 52° SW 01:36:45 10° SE daylight
27 May - 17:17:58 10° SSE 17:20:21 14° SE 17:22:43 10° E daylight
27 May - 18:56:44 10° SW 19:01:19 71° SSE 19:05:50 10° ENE daylight
27 May - 20:38:48 10° W 20:43:06 40° NNW 20:47:22 10° NE daylight
27 May - 22:21:19 10° WNW 22:25:24 33° N 22:29:27 10° ENE daylight
28 May - 00:03:01 10° WNW 00:07:30 67° NNE 00:11:54 10° ESE daylight
28 May - 01:45:00 10° W 01:48:46 27° SW 01:52:30 10° SSE daylight
28 May - 17:32:38 10° SSW 17:36:32 27° SE 17:40:23 10° E daylight
28 May - 19:13:14 10° WSW 19:17:49 71° NNW 19:22:22 10° ENE daylight
28 May - 20:55:44 10° WNW 20:59:53 33° N 21:03:59 10° ENE daylight
28 May - 22:37:57 10° NW 22:42:12 38° NNE 22:46:23 10° E daylight
29 May - 00:19:32 10° WNW 00:24:00 74° SSW 00:28:25 10° SE daylight
29 May - 02:02:37 10° W 02:04:56 14° SW 02:07:14 10° SSW daylight
29 May - 17:48:21 10° SW 17:52:50 50° SE 17:57:16 10° ENE daylight
29 May - 19:30:01 10° W 19:34:27 47° NNW 19:38:51 10° NE daylight
29 May - 21:12:36 10° WNW 21:16:42 32° N 21:20:45 10° ENE daylight
29 May - 22:54:28 10° WNW 22:58:54 52° NNE 23:03:15 10° E daylight
30 May - 00:36:13 10° WNW 00:40:23 40° SW 00:44:31 10° SSE daylight
30 May - 16:24:56 10° S 16:28:10 19° SE 16:31:22 10° E daylight
30 May - 18:04:37 10° WSW 18:09:16 88° SE 18:13:51 10° ENE daylight
30 May - 19:46:55 10° W 19:51:11 36° NNW 19:55:24 10° ENE daylight
30 May - 21:29:20 10° WNW 21:33:31 35° N 21:37:38 10° ENE daylight
30 May - 23:10:58 10° WNW 23:15:30 82° NNE 23:19:56 10° ESE daylight
31 May - 00:53:16 10° W 00:56:37 21° SW 00:59:57 10° S daylight
31 May - 16:40:10 10° SSW 16:44:23 35° SE 16:48:35 10° ENE daylight
31 May - 18:21:15 10° WSW 18:25:50 59° NNW 18:30:20 10° ENE daylight
31 May - 20:03:51 10° WNW 20:08:00 32° N 20:12:04 10° ENE daylight
31 May - 21:45:55 10° NW 21:50:16 43° NNE 21:54:33 10° E daylight
31 May - 23:27:32 10° WNW 23:31:57 58° SW 23:36:18 10° SE daylight
01 Jun - 01:12:21 10° SW 01:12:44 10° SW 01:13:07 10° SW daylight
01 Jun - 15:17:52 10° SSE 15:19:51 13° SE 15:21:48 10° ESE daylight
01 Jun - 16:56:09 10° SW 17:00:44 64° SSE 17:05:18 10° ENE daylight
01 Jun - 18:38:06 10° W 18:42:30 42° NNW 18:46:51 10° NE daylight
01 Jun - 20:20:40 10° WNW 20:24:48 33° N 20:28:54 10° ENE daylight
01 Jun - 22:02:25 10° WNW 22:06:56 63° NNE 22:11:22 10° ESE daylight
01 Jun - 23:44:19 10° WNW 23:48:17 31° SW 23:52:10 10° SSE daylight
02 Jun - 15:32:12 10° S 15:35:59 25° SE 15:39:44 10° E daylight
02 Jun - 17:12:35 10° WSW 17:17:14 76° NNW 17:21:51 10° ENE daylight
02 Jun - 18:55:03 10° WNW 18:59:16 34° N 19:03:27 10° ENE daylight
02 Jun - 20:37:19 10° WNW 20:41:36 37° NNE 20:45:48 10° E daylight
02 Jun - 22:18:56 10° WNW 22:23:29 81° SSW 22:27:56 10° SE daylight
03 Jun - 00:01:44 10° W 00:04:28 16° SW 00:07:10 10° S daylight
03 Jun - 15:47:49 10° SW 15:52:16 45° SE 15:56:41 10° ENE daylight
03 Jun - 17:29:19 10° W 17:33:51 50° NNW 17:38:20 10° ENE daylight
03 Jun - 19:11:56 10° WNW 19:16:05 32° N 19:20:11 10° ENE daylight
03 Jun - 20:53:52 10° WNW 20:58:19 50° NNE 21:02:42 10° E daylight
03 Jun - 22:35:34 10° WNW 22:39:53 44° SW 22:44:07 10° SE daylight
04 Jun - 14:24:38 10° S 14:27:38 17° SE 14:30:37 10° E daylight
04 Jun - 16:04:01 10° SW 16:08:40 81° SSE 16:13:19 10° ENE daylight
04 Jun - 17:46:13 10° W 17:50:34 38° NNW 17:54:52 10° ENE daylight
04 Jun - 19:28:41 10° WNW 19:32:54 34° N 19:37:03 10° ENE daylight
04 Jun - 21:10:22 10° WNW 21:14:56 76° NNE 21:19:25 10° ESE daylight
04 Jun - 22:52:32 10° W 22:56:08 24° SW 22:59:41 10° S daylight
